Tracking 31032 objects as of 14-Jul-2025
HD Live streaming from Space Station
objects crossing your sky now

STARLINK-11436

Track STARLINK-11436 now!
10-day predictions
STARLINK-11436 is classified as:


NORAD ID: 62887
Int'l Code: 2025-024J
Perigee: 362.4 km
Apogee: 364.9 km
Inclination: 43.0 °
Period: 91.7 minutes
Semi major axis: 6734 km
RCS: Unknown
Launch date: February 4, 2025
Source: United States (US)
Launch site: AIR FORCE EASTERN TEST RANGE (AFETR)
Your satellite tracking list
Your tracking list is empty




NASA's NSSDC Master Catalog

Two Line Element Set (TLE):
1 62887U 25024J   25195.22838696  .00133854  00000-0  10297-2 0  9995
2 62887  43.0023 178.7486 0001884 271.2967  88.7684 15.70844963 26366
Source of the keplerian elements: AFSPC